TimeEDT,TemperatureF,Dew PointF,Humidity,Sea Level PressureIn,VisibilityMPH,Wind Direction,Wind SpeedMPH,Gust SpeedMPH,PrecipitationIn,Events,Conditions,WindDirDegrees,DateUTC
12:54 AM,50.0,30.0,46,30.05,10.0,West,6.9,-,N/A,,Clear,280,2013-05-15 04:54:00
1:54 AM,48.9,30.9,50,30.05,10.0,West,6.9,-,N/A,,Clear,280,2013-05-15 05:54:00
2:54 AM,46.9,30.9,54,30.06,10.0,WNW,6.9,-,N/A,,Clear,300,2013-05-15 06:54:00
3:54 AM,46.0,30.9,56,30.06,10.0,Calm,Calm,-,N/A,,Clear,0,2013-05-15 07:54:00
4:54 AM,46.0,32.0,58,30.06,10.0,West,3.5,-,N/A,,Clear,260,2013-05-15 08:54:00
5:54 AM,46.9,32.0,56,30.06,10.0,Calm,Calm,-,N/A,,Clear,0,2013-05-15 09:54:00
6:54 AM,51.1,32.0,48,30.06,10.0,West,3.5,-,N/A,,Clear,280,2013-05-15 10:54:00
7:54 AM,54.0,30.9,41,30.06,10.0,SSW,3.5,-,N/A,,Clear,200,2013-05-15 11:54:00
8:54 AM,55.0,35.1,47,30.04,10.0,South,5.8,-,N/A,,Clear,170,2013-05-15 12:54:00
9:54 AM,57.0,33.1,40,30.02,10.0,SE,6.9,-,N/A,,Scattered Clouds,130,2013-05-15 13:54:00
10:54 AM,63.0,32.0,31,30.00,10.0,SW,10.4,-,N/A,,Scattered Clouds,220,2013-05-15 14:54:00
11:54 AM,64.0,36.0,35,29.97,10.0,South,10.4,-,N/A,,Scattered Clouds,190,2013-05-15 15:54:00
12:54 PM,64.0,37.9,38,29.94,10.0,SW,18.4,-,N/A,,Mostly Cloudy,220,2013-05-15 16:54:00
1:54 PM,63.0,35.1,35,29.92,10.0,South,15.0,27.6,N/A,,Mostly Cloudy,180,2013-05-15 17:54:00
2:54 PM,63.0,36.0,37,29.87,10.0,South,17.3,-,N/A,,Mostly Cloudy,190,2013-05-15 18:54:00
3:54 PM,60.1,39.0,46,29.85,10.0,SSW,20.7,28.8,0.00,,Overcast,200,2013-05-15 19:54:00
4:54 PM,57.0,46.9,69,29.83,10.0,South,12.7,-,0.00,,Overcast,180,2013-05-15 20:54:00
5:31 PM,57.2,48.2,72,29.80,10.0,South,18.4,23.0,0.00,,Overcast,190,2013-05-15 21:31:00
5:54 PM,57.9,48.0,70,29.78,10.0,South,21.9,28.8,0.00,,Overcast,190,2013-05-15 21:54:00
6:54 PM,55.9,48.9,77,29.75,10.0,South,18.4,-,0.00,Rain,Light Rain,180,2013-05-15 22:54:00
7:54 PM,57.0,48.9,74,29.74,10.0,South,15.0,23.0,0.00,,Overcast,190,2013-05-15 23:54:00
8:54 PM,57.9,51.1,78,29.72,10.0,SSW,13.8,23.0,N/A,,Overcast,210,2013-05-16 00:54:00
9:54 PM,57.0,51.1,81,29.70,10.0,SW,13.8,-,N/A,,Mostly Cloudy,220,2013-05-16 01:54:00
10:54 PM,57.0,51.1,81,29.69,10.0,SW,8.1,-,N/A,,Scattered Clouds,220,2013-05-16 02:54:00
11:54 PM,55.9,52.0,87,29.69,10.0,SW,11.5,-,N/A,,Mostly Cloudy,230,2013-05-16 03:54:00